Location: ?????????
(56.0500°N, 38.2500°E)
Time: 13:24:38
(UTC+00:00)

Daily predictions for brighter satellites

Satellite Brightness Start Highest point End
(mag) Time Altitude Azimuth Time Altitude Azimuth Time Altitude Azimuth
Cosmos 2263 4.5 13:26:54 10° SSW 13:32:33 60° ESE 13:38:16 10° NE
Cosmos 968 Rocket 3.6 13:27:32 10° SSW 13:32:45 83° ESE 13:38:03 10° NNE
ACS3 Solar Sail 4.2 13:29:45 10° WSW 13:33:12 16° W 13:36:45 10° NW
Cosmos 1626 Rocket 4.4 13:32:54 10° N 13:36:45 29° ENE 13:40:33 10° SE
Cosmos 2297 3.8 13:31:29 10° SSW 13:37:09 76° ESE 13:42:49 10° NE
Cosmos 1400 Rocket 3.1 13:35:06 10° SSW 13:38:46 60° WNW 13:42:25 10° N
USA 290 3.6 13:36:21 10° N 13:38:52 20° NE 13:41:24 10° E
Cosmos 1892 Rocket 3.6 13:35:10 10° N 13:39:38 73° ENE 13:44:05 10° SSE
Cosmos 1464 Rocket 4.0 13:34:08 10° S 13:40:18 80° E 13:46:27 10° NNE
SMAP 3.7 13:36:21 10° SE 13:40:33 35° ENE 13:44:47 10° N
Thor Agena Rocket 3.8 13:36:30 10° SE 13:41:28 47° ENE 13:46:24 10° N
Cosmos 2297 Rocket 2.5 13:38:17 10° NNW 13:43:45 46° NE 13:49:12 10° ESE
Landsat 7 4.5 13:42:41 10° ESE 13:46:47 31° ENE 13:50:53 10° N
Cosmos 2151 4.1 13:43:54 10° NNE 13:47:06 21° ENE 13:50:17 10° ESE
Cosmos 1741 Rocket 4.1 13:43:49 10° SSW 13:49:07 83° ESE 13:54:29 10° NNE
Aureole 3 Rocket 4.2 13:45:42 10° SSW 13:50:08 58° WNW 13:56:22 10° N
Cosmos 1092 Rocket 4.0 13:44:46 10° N 13:50:59 73° ENE 13:57:06 10° SSE
CZ-2D R/B 4.0 13:49:39 10° ESE 13:52:04 21° ENE 13:54:30 10° NNE
BlueWalker 3 3.1 13:51:04 10° W 13:54:29 40° SSW 13:57:54 10° SE
Cosmos 2219 4.4 13:51:56 10° NNW 13:56:30 24° NNE 14:01:06 10° ENE
Meteor 2-1 Rocket 4.3 13:50:46 10° S 13:56:42 79° E 14:02:33 10° NNE
Cosmos 1743 3.5 13:55:53 10° NNE 13:58:32 22° ENE 14:01:10 10° ESE
Lacrosse 4 Rocket 1.9 13:55:51 10° S 13:59:40 41° ESE 14:03:13 11° NE
ATLAS CENTAUR R/B 0.7 13:57:04 10° NW 14:00:23 66° NE 14:03:35 10° ESE
CZ-4C R/B 2.8 13:55:40 10° NW 14:01:49 67° NNE 14:09:47 10° ESE
Cosmos 1484 Rocket 2.4 14:00:25 10° SSE 14:03:56 85° ENE 14:07:28 10° NNW
Iridium 45 4.1 14:02:43 10° S 14:05:51 70° E 14:09:04 10° N
H-2A R/B 4.4 14:03:26 10° N 14:06:20 21° WNW 14:09:10 10° WSW
Cosmos 724 4.3 14:00:55 10° NW 14:07:03 70° NE 14:13:01 10° ESE
JB-3 4.1 14:03:56 10° NNE 14:07:39 77° ESE 14:11:18 10° S
Cosmos 2034 Rocket 4.1 14:01:43 10° S 14:08:02 85° E 14:14:28 10° NNE
Meteor 1-28 Rocket 3.5 14:06:16 10° NNE 14:09:25 36° E 14:12:33 10° SSE
NOSS 3-3 (A) 4.5 14:05:04 10° NW 14:11:59 86° NE 14:20:24 10° SE
Iridium 51 4.0 14:09:44 10° SSE 14:12:44 44° E 14:15:49 10° NNE
Cosmos 44 Rocket 4.5 14:09:43 10° WNW 14:14:07 30° N 14:17:49 14° NE
Cosmos 1602 Rocket 4.1 14:10:31 10° N 14:14:38 36° ENE 14:18:42 10° SE
Cosmos 1570 Rocket 4.0 14:09:25 10° NNW 14:14:49 86° ENE 14:20:09 10° SSE
Cosmos 1867 3.7 14:09:41 10° NW 14:15:06 57° NNE 14:20:29 10° ESE
MOS 1 Rocket 3.9 14:10:36 10° SE 14:15:09 40° ENE 14:19:58 10° N
IGS 5A 3.3 14:12:56 10° SSE 14:16:54 88° ENE 14:20:55 10° NNW
Cosmos 1455 Rocket 3.0 14:13:12 10° S 14:17:32 87° E 14:21:56 10° NNE
Cosmos 1844 Rocket 4.2 14:14:38 10° NNW 14:18:38 19° NNE 14:21:38 13° NE
Lacrosse 5 rocket 2.1 14:15:21 10° SSW 14:18:45 33° SE 14:21:16 15° E
Cosmos 2084 3.6 14:15:13 10° SSW 14:19:19 55° SE 14:22:25 16° ENE
CENTAUR R/B 2.7 14:14:34 10° SSW 14:20:19 64° SE 14:26:39 14° NE
IRS-P3 4.3 14:15:52 10° SE 14:20:56 47° ENE 14:26:01 10° N
Cosmos 2084 Rocket 3.4 14:16:55 10° NW 14:21:08 65° NNE 14:25:19 10° ESE
SAR-Lupe-4 3.7 14:18:28 10° SE 14:21:54 47° ENE 14:25:21 10° N
Cosmos 1850 Rocket 4.5 14:17:14 10° SW 14:22:20 59° NW 14:27:28 10° NNE
Cosmos 1900 4.5 14:17:20 10° NW 14:22:23 57° NE 14:27:20 10° ESE
Cosmos 2266 Rocket 4.2 14:19:18 10° N 14:25:19 47° ENE 14:31:11 10° SE
Cosmos 2263 Rocket 2.9 14:20:27 10° NNW 14:25:34 33° NE 14:30:18 12° E
Cosmos 292 Rocket 3.8 14:21:47 10° SSW 14:26:36 87° WNW 14:31:24 10° NNE
Cosmos 1315 Rocket 2.6 14:23:11 10° S 14:27:00 69° E 14:30:50 10° NNE
SL-16 R/B 2.5 14:20:53 10° NNE 14:27:10 74° ESE 14:33:22 10° SSW
Resurs 01 Rocket 3.4 14:28:00 14° NE 14:28:00 14° NE 14:29:39 10° NNE
Cosmos 1607 3.9 14:22:00 10° NW 14:28:15 85° NE 14:34:33 10° SE
SJ 16-02 3.5 14:26:03 10° W 14:28:59 18° NW 14:31:56 10° N
SAR-Lupe-1 4.2 14:25:35 10° SE 14:29:04 50° ENE 14:32:36 10° N
NOSS 7 (H) 4.2 14:26:09 10° NW 14:29:05 51° NNE 14:31:04 18° ESE
CZ-2D R/B 4.3 14:25:56 10° ESE 14:29:31 28° ENE 14:33:04 10° N
ERS-1 4.5 14:24:54 10° SE 14:29:49 58° ENE 14:34:42 10° NNW
YAOGAN 1 3.5 14:29:27 10° ESE 14:33:00 26° ENE 14:36:33 10° N
Intercosmos 24 3.8 14:28:59 10° NNW 14:33:27 90° N 14:37:04 10° S
Cosmos 2227 Rocket 2.4 14:29:14 10° NNW 14:34:43 49° NE 14:40:12 10° ESE
Cosmos 1782 3.0 14:32:13 10° SSE 14:35:36 38° E 14:37:56 17° NNE
USA 215 3.3 14:29:44 13° E 14:35:41 83° N 14:42:16 10° W
CORIOLIS 4.2 14:32:24 10° SSE 14:37:45 85° WSW 14:43:08 10° NNW
Cosmos 405 Rocket 2.7 14:37:26 10° NNW 14:40:42 65° W 14:43:54 10° S
USA 281 4.4 14:38:01 17° ENE 14:41:00 23° NNE 14:45:58 10° NNW
Cosmos 773 Rocket 4.1 14:35:58 10° NNW 14:41:12 83° WSW 14:46:25 10° SSE
Cosmos 1356 Rocket 3.3 14:37:08 10° SSW 14:41:12 89° ESE 14:45:19 10° NNE
Cosmos 2369 Rocket 2.9 14:37:04 10° WSW 14:42:33 49° NW 14:47:43 12° NNE
Cosmos 1733 1.6 14:43:12 11° NNW 14:44:58 71° W 14:46:53 10° S
SJ-12 3.6 14:43:25 10° SSE 14:47:11 78° ENE 14:51:00 10° NNW
Cosmos 2208 Rocket 4.2 14:43:26 10° NNW 14:48:36 74° WSW 14:53:45 10° SSE
Cosmos 1825 Rocket 3.9 14:44:55 10° N 14:49:04 39° ENE 14:53:09 10° SE
SJ-6F 4.3 14:45:11 10° SSE 14:49:06 63° ENE 14:53:06 10° N
ARIANE 5 R/B 2.5 14:44:46 10° SSE 14:49:50 88° WSW 14:55:01 10° NNW
Cosmos 1758 Rocket 3.6 14:45:58 10° NNW 14:50:19 80° W 14:54:37 10° S
Cosmos 2278 Rocket 3.9 14:46:46 10° WNW 14:50:57 21° NNW 14:54:37 12° NNE
Cosmos 1943 Rocket 3.9 14:47:19 10° WNW 14:51:17 20° NNW 14:54:44 12° NNE
GEOS 3 Rocket 3.8 14:48:18 21° NE 14:52:00 66° SE 14:57:21 10° SW
SPOT 1/Viking Rocket 3.6 14:47:26 10° SE 14:52:30 54° ENE 14:57:35 10° N
Cosmos 2228 3.0 14:48:23 10° SSW 14:52:38 81° WNW 14:56:55 10° N
IRAS Rocket 4.5 14:47:39 10° SE 14:52:48 43° ENE 14:57:58 10° N
Cosmos 2098 Rocket 3.0 14:53:14 10° S 14:57:14 60° E 15:01:58 10° NNE
Cosmos 1697 Rocket 3.8 14:53:49 10° SSE 14:58:02 22° ESE 14:58:26 22° E
Meteor 1-20 Rocket 4.0 14:53:18 10° NNW 14:58:49 77° ENE 15:04:16 10° SSE
BREEZE-M DEB (TANK) 3.8 14:57:12 10° WSW 15:00:03 38° S 15:05:50 14° ESE
AQUARIUS 4.2 15:02:36 10° SSE 15:07:01 82° WSW 15:11:28 10° NNW
NOSS 2-2 (C) 2.5 15:06:53 10° SW 15:09:57 66° SE 15:10:15 60° E
USA 290 3.0 15:10:17 10° NW 15:13:29 52° WSW 15:16:39 10° S
NOSS 3-2 (C) 4.0 15:09:26 10° S 15:13:59 32° ESE 15:15:10 29° E
NOSS 3-2 (A) 3.3 15:10:16 10° SSW 15:15:22 63° SE 15:18:17 31° ENE
Cosmos 1655 Rocket 4.0 15:09:34 10° N 15:15:46 58° ENE 15:21:54 10° SSE
SMAP 4.3 15:13:23 10° S 15:17:51 44° W 15:22:20 10° NNW
Cosmos 2082 4.2 15:13:52 10° NNW 15:19:15 40° NE 15:20:46 34° ENE
Cosmos 1241 Rocket 4.5 15:13:38 10° SSW 15:19:54 63° SE 15:22:58 31° ENE
Cosmos 1538 Rocket 4.1 15:17:35 10° NNW 15:22:44 53° NE 15:25:01 31° ESE
CZ-2D R/B 4.3 15:20:53 10° S 15:23:50 37° W 15:26:49 10° NNW
Cosmos 2151 3.4 15:20:12 10° NNW 15:24:18 61° W 15:28:24 10° S
Cosmos 1606 Rocket 3.7 15:23:09 10° S 15:27:24 50° E 15:27:45 49° ENE
Cosmos 2297 Rocket 3.1 15:22:26 10° NW 15:27:55 50° WSW 15:33:21 10° S
UNK 4.1 15:23:59 11° NNE 15:28:19 65° WNW 15:32:51 10° SSW
Meteor 1-25 Rocket 4.3 15:22:46 10° NNW 15:28:39 85° WSW 15:34:27 10° S
BREEZE-M DEB (TANK) 4.4 15:25:55 10° WSW 15:29:13 43° S 15:33:46 22° ESE
Cosmos 1076 Rocket 3.4 15:25:54 10° N 15:30:10 60° ENE 15:32:39 24° SSE
Okean 1-7 Rocket 3.7 15:26:42 10° NNW 15:31:08 73° W 15:35:29 10° S
Cosmos 1743 4.0 15:29:12 10° NNW 15:32:11 33° W 15:35:09 10° SSW
Cosmos 1656 3.6 15:28:43 10° SSW 15:34:21 82° ESE 15:37:03 33° NE
Resurs 1-3 3.4 15:30:18 10° SSE 15:34:36 77° ENE 15:38:56 10° NNW
ATLAS CENTAUR R/B 3.5 15:32:28 10° WNW 15:34:53 19° WSW 15:37:16 10° S
Cosmos 1544 Rocket 4.2 15:32:05 10° SSW 15:36:25 55° WNW 15:40:20 13° N
Cosmos 1503 Rocket 4.0 15:31:40 10° S 15:36:48 57° ESE 15:37:54 47° ENE
Meteor 2-10 4.1 15:31:51 10° N 15:37:02 55° ENE 15:39:46 28° SE
Lacrosse 4 Rocket 2.3 15:33:43 10° WSW 15:37:34 40° NW 15:38:43 32° N
OceanSat 1 rocket 4.4 15:34:27 10° SSE 15:39:11 73° ENE 15:43:54 10° NNW
Cosmos 2279 Rocket 4.5 15:33:06 10° SSW 15:39:13 60° WNW 15:45:26 10° N
Cosmos 2219 3.2 15:36:10 10° NNW 15:41:51 58° NE 15:43:13 46° E
Cosmos 1461 4.3 15:39:23 10° S 15:41:17 23° SSE 15:41:17 23° SSE
SJ-7 4.1 15:42:23 48° SSE 15:43:21 86° WSW 15:47:09 10° NNW
Cosmos 1354 Rocket 4.2 15:38:36 10° S 15:43:36 48° ESE 15:43:36 48° ESE
Meteor 1-5 Rocket 4.0 15:38:33 10° NNW 15:43:53 88° ENE 15:49:17 10° SSE
SKYMED 2 3.4 15:45:54 70° E 15:45:59 70° ESE 15:50:18 10° S
Spot 4 Rocket 4.0 15:42:02 10° SSE 15:47:09 80° WSW 15:52:18 10° NNW
CZ-4C R/B 3.5 15:43:47 10° NW 15:50:18 55° SW 15:58:26 10° SSE
COSMO-SKYMED 1 4.1 15:52:52 23° S 15:52:52 23° S 15:54:31 10° S
SL-19 R/B 4.2 15:47:51 10° SSE 15:53:13 82° WSW 15:58:55 10° NNW
Cosmos 1726 Rocket 3.8 15:49:29 10° S 15:53:24 57° SSE 15:53:24 57° SSE
PSLV R/B 3.4 15:52:38 29° S 15:54:39 77° WSW 15:58:44 10° NNW
Lacrosse 5 rocket 1.5 15:51:48 10° WSW 15:54:52 58° WSW 15:54:52 58° WSW
Cosmos 44 Rocket 4.1 15:51:53 10° NW 15:56:25 39° NNE 15:56:25 39° NNE
Cosmos 2084 4.0 15:54:02 10° W 15:58:05 47° NNW 15:58:08 47° NNW
Cosmos 1867 4.5 15:53:27 10° NW 15:58:41 48° SW 16:03:16 13° SSE
Cosmos 1777 Rocket 3.9 15:53:42 10° SSW 15:58:58 89° ESE 16:00:10 55° NNE
Cosmos 1980 Rocket 4.0 15:54:36 10° SSE 15:55:56 16° SSE 15:55:56 16° SSE
Resurs 01 Rocket 3.2 16:05:25 25° N 16:05:25 25° N 16:07:18 10° N
Cosmos 1844 Rocket 3.5 15:58:53 10° NNW 16:03:16 35° NNE 16:03:16 35° NNE
CZ-2D R/B 4.4 16:00:11 10° S 16:04:16 48° W 16:08:19 10° NNW
Cosmos 923 Rocket 4.5 16:00:15 10° NNW 16:04:16 45° NNE 16:04:16 45° NNE
YAOGAN 1 3.2 16:04:28 10° S 16:08:37 53° W 16:12:49 10° NNW
Cosmos 2263 Rocket 2.2 16:04:21 10° NW 16:10:03 79° WSW 16:12:02 42° SSE
SL-16 R/B 4.0 16:04:53 10° N 16:10:19 32° NW 16:15:43 10° WSW
CENTAUR R/B 3.0 16:04:54 10° WSW 16:11:08 60° NNW 16:13:45 40° NE
Cosmos 1486 Rocket 4.3 16:08:17 10° SW 16:13:27 62° WNW 16:14:56 44° N
Cosmos 1953 Rocket 4.0 16:10:10 10° NNW 16:14:33 62° W 16:16:13 35° SSW
Nadezhda 2 Rocket 4.3 16:09:36 10° N 16:15:48 76° ENE 16:17:09 56° SE
USA 81 4.1 16:12:13 10° N 16:17:31 79° W 16:22:46 10° S
Cosmos 2360 4.3 16:11:52 10° SW 16:17:36 73° NW 16:18:51 55° NNE
Cosmos 2227 Rocket 3.1 16:13:25 10° NW 16:18:48 46° WSW 16:24:09 10° S
USA 215 3.2 16:17:05 52° SE 16:18:49 77° SSW 16:25:25 10° WNW
USA 281 3.4 16:24:53 50° NNE 16:24:53 50° NNE 16:30:42 10° NNW
Cosmos 2369 Rocket 4.0 16:23:36 10° WNW 16:27:56 22° NNW 16:29:28 20° N
GEOS 3 Rocket 4.2 16:29:20 49° N 16:29:55 51° NNW 16:35:07 10° W
Cosmos 1943 Rocket 4.1 16:33:20 10° NNW 16:36:13 18° N 16:36:13 18° N
Cosmos 2278 Rocket 4.1 16:33:12 10° NW 16:36:26 18° N 16:36:26 18° N
Cosmos 1697 Rocket 3.0 16:35:42 10° SSW 16:40:11 59° SW 16:40:11 59° SW
Cosmos 2082 4.4 16:58:00 10° NW 17:02:37 52° WNW 17:02:37 52° WNW
NOSS 3-2 (C) 3.9 16:58:49 10° WSW 17:02:36 49° WSW 17:02:36 49° WSW
NOSS 3-2 (A) 4.0 17:00:52 10° W 17:05:38 52° NW 17:05:38 52° NW
Lacrosse 4 Rocket 4.4 17:13:38 10° WNW 17:14:13 12° NW 17:14:13 12° NW
Cosmos 2263 Rocket 4.4 17:49:20 10° WNW 17:53:07 19° W 17:53:46 18° WSW
CENTAUR R/B 3.9 17:56:14 10° WNW 18:00:51 40° NW 18:00:51 40° NW
